Location: Clyde
(45.1830°S, 169.3170°E)
Time: 16:32:42
(UTC+12:00)

Cosmos 2219 Rocket - Pass Details

Date: 14 May 2021
Orbit: 827 x 847 km, 71.0° (Epoch: 16 June)

Event Time Altitude Azimuth Distance (km) Brightness Sun altitude
Rises 17:44:16 0° 348° (NNW) 3,374 5.9 -4.0°
Reaches altitude 10° 17:46:43 10° 351° (N) 2,445 5.1 -4.4°
Maximum altitude 17:52:14 61° 69° (ENE) 953 2.3 -5.3°
Drops below altitude 10° 17:57:48 10° 148° (SSE) 2,466 4.2 -6.2°
Sets 18:00:16 0° 151° (SSE) 3,405 4.9 -6.6°
